World > North America > United States > Iowa > Dallas Center  

Dallas Center, IA Hourly Weather Updates

Feedback E-mail the Weather

Quick Clicks

Dallas Center, IA Weather Maps

°F °C°F °C
Dallas Center Weather Map
UTC Time: 5/22/2024, 05:25
Your Time:

Dallas Center, IA Regional Weather

Expires:202405220600;;640432
ASUS43 KDMX 220506
RWRIA 

WEATHER ROUNDUP FOR IOWA
NATIONAL WEATHER SERVICE DES MOINES IA
1200 AM CDT WED MAY 22 2024

NOTE: "FAIR" INDICATES FEW OR NO CLOUDS BELOW 12,000 FEET WITH NO
SIGNIFICANT WEATHER AND/OR OBSTRUCTIONS TO VISIBILITY.

* - THESE STATIONS ARE NOT NWS STATIONS...THUS NOT UNDER NWS
QUALITY CONTROL.  THEY ALSO DO NOT REPORT WEATHER SUCH 
AS PRECIPITATION OR FOG.  


IAZ047>049-059>061-072>074-084-220600-
   CENTRAL IOWA
  
CITY           SKY/WX    TMP DP  RH WIND       PRES   REMARKS
AMES           CLOUDY    57  50  77 W20G32    29.69R TC  14           
ANKENY *       CLOUDY    57  50  77 W20G28    29.71R TC  14           
BOONE *        CLOUDY    55  54  94 W18G33    29.68R TC  13           
CHARITON *     PTCLDY    59  55  88 W13G22    29.72R TC  15           
DES MOINES     PTCLDY    58  49  72 W18G30    29.72R TC  14           
GRINNELL*      CLOUDY    59  54  82 W22G32    29.69R TC  15           
KNOXVILLE *    MOCLDY    59  52  77 W16       29.70R TC  15           
MARSHALLTOWN   CLOUDY    57  51  80 W20G39    29.65R TC  14           
NEWTON *       CLOUDY    57  57 100 W24G36    29.68R TC  14           
PELLA *        CLOUDY    59  52  77 W23G33    29.70R TC  15           
PERRY *        PTCLDY    56  50  79 W16G23    29.72R TC  14           
$$
 

SKY/WX - Weather  TMP - Temperature  DP - Dew Point  RH - Humidity
WIND - Wind Direction/Speed PRES - Barometric Pressure VSB - Visibility
WCI - Wind Chill Index E13G22 Wind - East Wind 13 mph/Gusts of 22 mph

Trending Headlines

Trending Entertainment Headlines

Dallas Center Radar Loop

Use the map search tool if you want to place a location marker on the radar map...

Dallas Center Quick Facts

National Two Day Weather Forecast


E-mail the Dallas Center Weather Forecast

Voice your opinion or tell us about page issues...